[[{"header":{"parameterUnit":"m.s-1","parameterCategory":1,"la1":30.2991,"la2":30.254,"lo1":-89.0895,"lo2":-89.0444,"dy":0.0017,"dx":0.0017,"nx":28,"ny":28,"refTime":"2025-03-21T09:00:00:Z","depth":0,"parameterNumber":2,"parameterNumberName":"U-component_of_WINDS"},"data":[0,0,0,0,0,0,0,0,0,0,0,0,0,0,0,0,0,0,0,0,0,0,0,0,0,0,0,0,0,0,0,0,0,0,0,0,0,0,0,0,0,0,0,0,0,0,0,0,0,0,0,0,0,0,0,0,0,0,0.818,0.818,0,0.8186,0.8186,0.8186,0.8182,0.8182,0.8182,0.8181,0.8185,0.8186,0.8186,0,0,0,0,0,0,0,0,0,0,0,0,0,0.8161,0.8162,0.818,0.818,0.818,0.8186,0.8186,0.8186,0.8182,0.8182,0.8182,0.8181,0.8185,0.8186,0.8186,0,0,0,0,0,0,0,0,0,0,0,0,0,0.8168,0.8162,0.818,0.8179,0.8179,0.8186,0.8186,0.8186,0.8182,0.8182,0.8182,0.8181,0.8185,0.8186,0.8186,0.8193,0,0,0.8187,0.8187,0,0,0,0,0,0,0,0,0.8168,0.8169,0.8179,0.8179,0.8179,0.8183,0.8181,0.8188,0.8182,0.8181,0.8181,0.8181,0.8185,0.8185,0.8187,0.8194,0.8194,0.8187,0.8187,0.8188,0.8188,0,0,0,0,0,0,0,0.8168,0.8169,0.8182,0.8179,0.8179,0.8177,0.8177,0.8182,0.8184,0.8181,0.8181,0.8181,0.8185,0.8186,0.8187,0.8194,0.8187,0.8188,0.8188,0.8188,0.8204,0.8204,0,0,0,0,0,0,0.8168,0.8169,0.8182,0.8182,0.8173,0.8177,0.8178,0.8182,0.8184,0.8184,0.8182,0.8181,0.8186,0.8186,0.8187,0.8194,0.8188,0.8188,0.8188,0.8204,0.8204,0.8205,0,0,0,0,0,0,0.8167,0.8169,0.8182,0.8175,0.8177,0.8178,0.8182,0.8182,0.8184,0.8185,0.8185,0.8183,0.8186,0.8186,0.8191,0.8194,0.8188,0.8189,0.8204,0.8204,0.8204,0.821,0,0,0,0,0,0,0.8167,0.8169,0.8173,0.8175,0.8177,0.8187,0.8182,0.8182,0.8185,0.8184,0.8186,0.8186,0.8185,0.8191,0.8192,0.8195,0.8189,0.8204,0.8204,0.8204,0.8209,0.821,0.8211,0,0,0,0,0,0.8166,0.8174,0.8173,0.8175,0.8182,0.8188,0.8188,0.8188,0.8185,0.8188,0.8188,0.8186,0.8194,0.8191,0.8192,0.8195,0.8203,0.8204,0.8204,0.8209,0.821,0.8211,0,0,0,0,0,0,0.8172,0.8175,0.8173,0.8183,0.8185,0.8187,0.8191,0.8189,0.8192,0.8191,0.819,0.819,0.8195,0.8196,0.8193,0.8201,0.8198,0.8199,0.8201,0.8202,0.8203,0.8202,0.8189,0,0,0,0,0,0.8174,0.8179,0.8181,0.8189,0.819,0.819,0.8193,0.8192,0.8194,0.8195,0.8195,0.8196,0.8198,0.82,0.8203,0.8209,0.8208,0.8211,0.8212,0.8213,0.8213,0.8214,0.8215,0.8206,0.8206,0.8206,0,0,0.8179,0.8181,0.8185,0.819,0.8192,0.8195,0.8191,0.8196,0.8198,0.8195,0.82,0.82,0.8201,0.8206,0.8208,0.8207,0.8215,0.8213,0.8214,0.8214,0.8215,0.8216,0.8217,0.8206,0.8206,0.8206,0,0,0.819,0.8193,0.8199,0.82,0.8202,0.8202,0.8203,0.8205,0.8205,0.821,0.8206,0.8208,0.8213,0.8213,0.8214,0.8222,0.8219,0.8223,0.8227,0.8228,0.8229,0.8229,0.8231,0.8231,0.8223,0.8223,0.8223,0,0.8196,0.8202,0.8202,0.8206,0.8208,0.8205,0.8209,0.821,0.8213,0.8214,0.8212,0.8216,0.8217,0.8221,0.8222,0.8224,0.8224,0.8223,0.8229,0.8229,0.823,0.8231,0.8232,0.8223,0.8223,0.8223,0.8223,0,0.8208,0.8212,0.8217,0.8219,0.8221,0.8226,0.8224,0.8226,0.8224,0.8224,0.8227,0.8227,0.8229,0.823,0.8228,0.8233,0.8231,0.8229,0.8226,0.8231,0.8232,0.8233,0.8224,0.8224,0.8224,0.8224,0,0,0.8224,0.8225,0.8226,0.8226,0.8227,0.823,0.8233,0.8235,0.8235,0.8237,0.8238,0.8241,0.8238,0.8239,0.8237,0.8239,0.8242,0.8236,0.8236,0.8236,0.8245,0.8247,0.8247,0.8241,0.8241,0.8241,0.8245,0,0.8234,0.824,0.8239,0.8245,0.8247,0.8243,0.8246,0.8246,0.8245,0.8246,0.8244,0.8246,0.8243,0.8243,0.8244,0.8242,0.8244,0.8242,0.8241,0.8241,0.8241,0.8248,0.825,0.8254,0.8245,0.8246,0.8246,0,0.8246,0.8248,0.8254,0.8252,0.8253,0.8256,0.8256,0.8257,0.8257,0.8255,0.8255,0.8253,0.8254,0.825,0.8251,0.8249,0.8249,0.8248,0.8248,0.8247,0.8244,0.8247,0.8255,0.8256,0.8247,0.8246,0.8246,0,0.8255,0.8259,0.8262,0.8263,0.8261,0.8263,0.8262,0.8261,0.8261,0.8261,0.8261,0.826,0.826,0.8259,0.8256,0.8254,0.8256,0.8253,0.8254,0.8254,0.8255,0.8255,0.8263,0.8256,0.8256,0.8256,0.8256,0,0.8266,0.8269,0.8266,0.8268,0.8271,0.8268,0.8271,0.827,0.8269,0.8269,0.8266,0.8266,0.8262,0.8262,0.8259,0.8259,0.8259,0.8257,0.8257,0.8257,0.8258,0.8257,0.8256,0.8256,0.8256,0.8256,0.8256,0,0.8277,0.8275,0.8278,0.8276,0.8276,0.8278,0.8275,0.8276,0.8274,0.8275,0.8275,0.8272,0.8271,0.8267,0.8266,0.8264,0.8264,0.8263,0.8265,0.8264,0.8266,0.8265,0.8273,0.8273,0.8266,0.8266,0.8266,0,0.8283,0.8286,0.8284,0.8284,0.8284,0.8284,0.8284,0.8281,0.8281,0.8278,0.8279,0.8278,0.8277,0.8276,0.8272,0.827,0.8269,0.8271,0.8268,0.8269,0.8267,0.8267,0.8267,0.8272,0.8272,0.8272,0.8272,0,0.8295,0.8293,0.8293,0.8293,0.8293,0.8292,0.8291,0.8291,0.8287,0.8287,0.8286,0.8285,0.8283,0.8281,0.8279,0.8277,0.8273,0.8273,0.8273,0.8274,0.8274,0.8273,0.8266,0.8273,0.8273,0.8273,0.8273,0.8273,0.8303,0.8304,0.8302,0.8302,0.8301,0.8299,0.83,0.8297,0.8297,0.8295,0.8293,0.8292,0.8288,0.8284,0.8283,0.8281,0.8279,0.828,0.828,0.828,0.828,0.8275,0.828,0.828,0.828,0.828,0.828,0,0.8313,0.8311,0.8311,0.8309,0.8309,0.8306,0.8304,0.8303,0.8303,0.83,0.8299,0.8297,0.8295,0.8291,0.8288,0.8287,0.8285,0.8286,0.8286,0.8286,0.8282,0.8282,0.8288,0.8288,0.8288,0.8288,0.8288,0.8288,0.8318,0.8319,0.8317,0.8317,0.8315,0.8314,0.8313,0.8311,0.8309,0.8307,0.8305,0.8303,0.8299,0.8296,0.8293,0.8292,0.8291,0.8292,0.829,0.8287,0.8286,0.8285,0.8285,0.8292,0.8292,0.8294,0.8294,0.8294]},{"header":{"parameterUnit":"m.s-1","parameterCategory":1,"la1":30.2991,"la2":30.254,"lo1":-89.0895,"lo2":-89.0444,"dy":0.0017,"dx":0.0017,"nx":28,"ny":28,"refTime":"2025-03-21T09:00:00:Z","depth":0,"parameterNumber":3,"parameterNumberName":"V-component_of_WINDS"},"data":[0,0,0,0,0,0,0,0,0,0,0,0,0,0,0,0,0,0,0,0,0,0,0,0,0,0,0,0,0,0,0,0,0,0,0,0,0,0,0,0,0,0,0,0,0,0,0,0,0,0,0,0,0,0,0,0,0,0,4.1931,4.1931,0,4.1936,4.1936,4.1936,4.1863,4.1861,4.1859,4.1857,4.1861,4.1863,4.1865,0,0,0,0,0,0,0,0,0,0,0,0,0,4.1856,4.1858,4.1931,4.1931,4.1932,4.1936,4.1936,4.1936,4.1863,4.1861,4.1858,4.1856,4.1861,4.1863,4.1865,0,0,0,0,0,0,0,0,0,0,0,0,0,4.1878,4.1858,4.1931,4.1896,4.1893,4.1936,4.1936,4.1936,4.1864,4.1861,4.1858,4.1855,4.186,4.1863,4.1866,4.1943,0,0,4.1875,4.1876,0,0,0,0,0,0,0,0,4.1876,4.188,4.1901,4.1898,4.1895,4.1896,4.1911,4.1939,4.1865,4.1875,4.1857,4.1854,4.1875,4.1877,4.1884,4.1944,4.1944,4.1875,4.1877,4.1878,4.1879,0,0,0,0,0,0,0,4.1875,4.188,4.1933,4.1901,4.1898,4.1878,4.1878,4.1916,4.1892,4.1874,4.1868,4.187,4.1873,4.1881,4.1884,4.1944,4.1875,4.1877,4.1879,4.188,4.2063,4.2066,0,0,0,0,0,0,4.1879,4.1879,4.1933,4.1933,4.1878,4.1882,4.1882,4.1899,4.1891,4.1887,4.1872,4.1866,4.1878,4.188,4.1883,4.1971,4.1878,4.1881,4.1882,4.206,4.2064,4.2067,0,0,0,0,0,0,4.1877,4.1884,4.1933,4.1905,4.1909,4.1887,4.1906,4.19,4.1909,4.189,4.1885,4.1886,4.1876,4.1879,4.1928,4.197,4.1882,4.1885,4.2056,4.2061,4.2065,4.2148,0,0,0,0,0,0,4.1876,4.1884,4.1915,4.1906,4.1911,4.1979,4.1909,4.1902,4.1914,4.1906,4.1901,4.1898,4.1873,4.1924,4.1931,4.1972,4.1887,4.2052,4.2058,4.2064,4.2142,4.2155,4.2167,0,0,0,0,0,4.1873,4.1938,4.1916,4.1923,4.1949,4.1981,4.1984,4.1955,4.1918,4.1947,4.1934,4.1898,4.1965,4.193,4.1937,4.198,4.205,4.2057,4.2063,4.2136,4.2153,4.2167,0,0,0,0,0,0,4.1953,4.1937,4.1912,4.1977,4.1981,4.1969,4.2005,4.1974,4.1989,4.1981,4.1945,4.1944,4.1998,4.1994,4.1955,4.2053,4.2,4.2009,4.2053,4.2069,4.2081,4.208,4.1889,0,0,0,0,0,4.1978,4.2007,4.1991,4.2049,4.2052,4.2029,4.2042,4.2019,4.2022,4.2023,4.2014,4.2018,4.2039,4.2054,4.2073,4.2141,4.2137,4.2174,4.2187,4.2197,4.2204,4.2237,4.2252,4.209,4.209,4.209,0,0,4.2031,4.2025,4.2046,4.2065,4.2066,4.2094,4.2031,4.2065,4.2085,4.2028,4.2072,4.2066,4.2068,4.2126,4.2151,4.2124,4.2248,4.2206,4.2215,4.2216,4.2245,4.2261,4.2274,4.2095,4.2094,4.2093,0,0,4.214,4.214,4.2187,4.2188,4.2189,4.2172,4.2184,4.2176,4.2169,4.2213,4.217,4.2193,4.2232,4.2233,4.2239,4.2346,4.2312,4.2354,4.2418,4.245,4.2463,4.2474,4.2509,4.2522,4.2361,4.2362,4.2362,0,4.2205,4.2247,4.2215,4.225,4.2259,4.2208,4.2254,4.2257,4.2264,4.2271,4.2241,4.2286,4.2284,4.2339,4.2365,4.2373,4.2382,4.2353,4.2464,4.2475,4.2484,4.2517,4.2531,4.2366,4.2366,4.2365,4.2365,0,4.2324,4.2354,4.2391,4.2398,4.2411,4.2452,4.2425,4.2442,4.2418,4.2404,4.2448,4.2443,4.2458,4.247,4.2448,4.2522,4.2505,4.2471,4.2416,4.2505,4.2535,4.2548,4.2373,4.2372,4.237,4.2369,0,0,4.2485,4.2471,4.2486,4.2486,4.2483,4.2504,4.2542,4.2556,4.257,4.2577,4.2605,4.2638,4.2605,4.2611,4.2588,4.2617,4.2697,4.2578,4.2577,4.2597,4.2775,4.2799,4.2815,4.2675,4.2677,4.2679,4.2774,0,4.2588,4.2651,4.2622,4.2688,4.2712,4.2663,4.2695,4.2696,4.2683,4.2702,4.2688,4.271,4.2667,4.267,4.2696,4.2682,4.2732,4.2675,4.2699,4.27,4.2698,4.2831,4.2857,4.2947,4.2786,4.2788,4.2789,0,4.2718,4.2727,4.2795,4.2783,4.2792,4.2822,4.2831,4.285,4.2849,4.2837,4.2844,4.2813,4.2847,4.2795,4.284,4.2802,4.281,4.2805,4.2807,4.2807,4.2749,4.2831,4.2975,4.2987,4.2808,4.2807,4.2805,0,4.2823,4.2854,4.2897,4.29,4.2888,4.2909,4.2906,4.2901,4.291,4.2919,4.2924,4.2937,4.2943,4.2953,4.2925,4.2891,4.2973,4.292,4.2962,4.2963,4.298,4.2979,4.3125,4.2991,4.299,4.299,4.299,0,4.294,4.2983,4.2944,4.2971,4.3016,4.2982,4.3027,4.3018,4.3014,4.3036,4.2996,4.3018,4.2982,4.3,4.2979,4.3018,4.3022,4.3012,4.3005,4.3014,4.3015,4.3017,4.3009,4.2994,4.2993,4.2992,4.2992,0,4.3066,4.3042,4.3085,4.307,4.3067,4.31,4.3086,4.3109,4.3094,4.3122,4.3127,4.3102,4.3121,4.3095,4.3112,4.3098,4.315,4.3136,4.315,4.3145,4.3188,4.3183,4.3338,4.3356,4.3213,4.3214,4.3216,0,4.3141,4.3172,4.3159,4.3171,4.3169,4.3189,4.3198,4.3165,4.3175,4.3174,4.3197,4.3212,4.3222,4.3255,4.3237,4.3249,4.3233,4.3286,4.3234,4.3241,4.323,4.3227,4.3229,4.3296,4.3298,4.33,4.3301,0,4.3276,4.3261,4.3276,4.3285,4.3296,4.3302,4.3305,4.3317,4.3282,4.3296,4.3314,4.3322,4.3337,4.3352,4.3359,4.3354,4.3321,4.3317,4.3327,4.3335,4.3341,4.3335,4.3176,4.3314,4.3312,4.3311,4.3311,4.331,4.3376,4.34,4.3393,4.3409,4.3408,4.3411,4.343,4.3416,4.343,4.344,4.342,4.3442,4.3437,4.3443,4.3441,4.3457,4.3434,4.3449,4.3453,4.3456,4.3461,4.3341,4.3459,4.3459,4.3458,4.3458,4.3458,0,4.3506,4.3498,4.3514,4.3517,4.353,4.3497,4.3498,4.351,4.353,4.3528,4.3538,4.3557,4.3571,4.3554,4.3564,4.3581,4.3565,4.3584,4.3581,4.358,4.3484,4.3472,4.3596,4.3596,4.3596,4.3596,4.3596,4.3596,4.3574,4.3612,4.3596,4.3631,4.3624,4.3645,4.3647,4.3649,4.3647,4.367,4.368,4.3669,4.366,4.3669,4.3679,4.3674,4.3678,4.3702,4.3691,4.3601,4.3587,4.3574,4.3563,4.3704,4.3704,4.3785,4.3786,4.3787]}]]